Terug naar catalogus

COSMOS 2590

ActiefMilitairHEO
NORAD 64527·PAYLOAD·🇷🇺 Russia

Gelanceerd Jun 19, 2025 vanaf Plesetsk Cosmodrome

Loading…

Volgende Passages (komende 24 uur)

TLE

VersSource: Space-Track

Epoch: Sep 13, 2026, 22:37 UTC

1 64527U 25131D   26256.94268950 -.00000213  00000-0  00000+0 0  9996
2 64527   0.8055  82.5200 3640272  20.1569 313.5146  1.00214440  4494

Volg COSMOS 2590 in realtime met AllMySat

Download on the App Store